User: anonymous   Login
Location: Kawakawa
(35.3830°S, 174.0670°E)
Time: 16:41:23
(UTC+13:00)
Language:

Cosmos 1741 Rocket - Orbit

View from above orbital plane
View from above orbital plane
View from above satellite
View from above satellite

Ground track
Ground track

The orbit data is extracted from the following two-line orbital elements,

1 16682U 86030B   19078.61027383 +.00000085 +00000-0 +38550-4 0  9993
2 16682 074.0254 130.1416 0015771 307.5278 206.9723 14.35878740722823
Epoch (UTC): 19 March 2019 14:38:47
Eccentricity: 0.0015771
inclination: 74.0254°
perigee height: 761 km
apogee height: 783 km
right ascension of ascending node: 130.1416°
argument of perigee: 307.5278°
revolutions per day: 14.35878740
mean anomaly at epoch: 206.9723°
orbit number at epoch: 72282

The dashed part of the orbit path shows where the satellite is in the earth's shadow,  

DLR